Temp
27 26 25 25 25 24 24 24 23 22 22 21 21 21 21 21 21 21 21 21 21 21 20 21 21 20 20 21 21 21 22 22 23 22 21 21 19 19 19 19 19 19 20
26 25 25 24 24 24 23 22 21 21 21 21 21 21 21 20 20 20 20 20 20 21 20 20 20 20 19 20 20 20 20 20 20 20 19 19 18 18 18 17 18 18 18
25 25 25 24 23 23 22 21 21 21 21 21 21 21 21 20 20 20 20 20 20 20 20 19 19 19 18 19 18 18 19 19 19 18 18 18 18 17 16 18 17 18 19
25 25 23 23 22 22 21 21 21 20 21 20 20 20 20 19 20 19 19 19 19 19 19 18 18 18 17 17 16 16 17 15 15 16 18 18 16 17 17 16 16 16 16
23 23 22 21 21 21 20 20 19 19 19 19 19 19 19 20 16 15 17 18 18 17 18 18 18 17 16 15 15 14 14 13 14 16 14 17 17 16 17 16 16 16 16
22 22 21 20 20 19 19 19 19 19 18 18 19 19 19 16 15 14 14 15 17 17 17 17 17 17 16 14 13 13 12 12 13 13 14 15 14 14 15 15 15 15 17
21 20 20 19 19 19 19 19 19 18 18 18 18 18 16 13 13 13 13 14 15 16 15 15 15 16 14 13 12 12 13 14 13 13 13 13 13 14 14 15 15 16 17
20 20 19 19 19 18 18 18 18 18 18 17 17 16 16 13 12 10 13 15 15 15 15 14 13 12 11 10 11 12 14 15 14 14 13 13 13 14 14 14 14 15 16
20 19 19 19 18 18 18 17 17 17 17 17 16 15 14 14 11 10 10 14 15 14 14 13 11 10 9 10 11 10 10 12 12 12 13 14 15 15 14 13 14 14 15
19 18 17 17 17 17 17 17 17 17 17 17 16 15 14 13 11 9 10 13 11 11 13 12 10 10 9 8 9 9 9 10 11 12 13 14 16 16 16 15 15 12 12
17 17 17 17 16 16 16 16 16 16 16 16 15 15 15 13 11 10 8 9 8 9 10 10 9 8 8 8 8 8 7 8 10 13 14 15 15 16 16 15 14 11 11
17 17 16 16 17 16 15 15 15 15 16 16 16 16 16 14 12 10 8 9 9 9 9 9 9 7 7 7 7 7 8 9 11 13 14 14 14 12 15 14 13 12 10
16 16 16 15 15 15 15 15 17 16 16 16 16 16 15 14 13 10 8 8 8 10 8 7 6 7 6 7 7 7 8 9 11 13 14 13 14 13 13 12 12 10 10
16 16 16 15 15 15 16 16 15 14 15 15 15 14 14 14 11 9 7 8 9 10 9 9 6 5 6 6 7 7 9 11 11 12 11 12 13 13 14 14 11 9 10
16 16 17 16 16 15 13 12 14 10 10 11 11 12 12 11 8 6 6 6 7 7 8 9 6 4 4 4 5 7 8 12 12 11 12 12 13 13 14 14 12 10 10
17 17 17 17 17 16 15 13 10 10 10 9 8 7 10 8 7 7 7 7 6 7 10 8 5 4 3 4 8 10 11 11 10 10 11 12 12 12 13 13 11 11 10
17 16 16 17 16 16 15 15 15 9 10 9 9 8 7 7 7 7 7 7 7 8 11 9 7 4 4 9 10 10 10 10 10 10 10 11 11 11 12 12 10 10 10
16 15 16 16 16 16 15 15 15 15 15 14 10 10 9 8 8 8 8 9 11 12 11 10 8 9 9 8 8 8 9 10 10 10 10 10 11 11 12 13 13 10 11
14 14 16 16 16 15 15 15 15 15 14 14 14 12 11 9 9 9 9 10 10 11 10 10 9 8 8 8 8 8 8 9 9 10 10 10 10 11 12 13 14 13 11
15 15 16 16 15 16 16 16 15 15 14 14 14 12 10 12 12 11 11 10 10 10 10 10 9 8 8 7 7 7 8 9 9 9 8 9 10 12 13 14 14 14 12
17 15 15 16 16 16 16 15 15 14 14 14 13 9 8 10 12 11 11 10 10 9 9 8 9 8 8 7 6 7 7 8 7 7 7 8 9 12 13 14 15 16 14
17 17 16 17 17 16 16 15 15 14 14 14 13 11 10 11 12 11 10 10 9 9 8 8 8 8 7 6 6 6 7 7 6 5 6 7 11 13 14 15 15 16 16
17 17 17 16 16 14 14 15 15 14 13 13 12 12 12 11 11 10 10 9 9 8 8 8 8 8 7 7 6 6 6 5 4 4 5 7 12 12 14 15 15 16 16
16 17 16 16 15 16 15 15 14 12 13 12 12 11 11 11 11 10 10 9 9 9 8 8 7 7 7 6 6 5 4 2 3 5 4 8 12 12 13 14 15 15 16
16 16 16 16 15 15 13 14 13 13 12 12 11 11 11 10 10 10 9 9 9 8 8 8 7 7 6 5 4 3 2 4 5 6 6 8 11 12 12 14 14 15 15
15 15 15 15 14 14 14 14 13 13 12 12 11 11 10 10 10 10 9 8 8 9 8 8 7 7 6 5 2 2 3 4 5 7 8 10 11 12 11 12 13 14 14
Height
811 814 818 820 822 824 825 825 826 828 829 830 830 829 828 827 825 824 822 820 818 816 814 811 808 806 803 799 796 793 788 785 776 772 772 769 768 766 761 757 753 749 745
808 811 814 817 819 820 822 823 824 826 827 827 826 825 824 824 823 823 821 818 815 812 810 809 806 802 799 796 792 790 786 782 776 768 767 764 762 760 756 752 747 743 739
805 809 811 814 816 819 821 822 823 824 824 825 825 824 823 823 821 819 818 815 814 811 808 805 802 799 796 793 792 787 781 777 773 767 762 759 756 753 749 745 740 735 731
803 806 811 814 816 818 820 821 822 823 823 824 824 824 823 822 821 818 818 815 812 809 806 803 800 797 794 791 787 783 779 776 773 766 757 754 752 747 744 740 733 730 727
802 807 811 815 817 819 821 822 823 824 824 824 823 822 821 820 819 818 816 813 810 807 803 799 796 794 790 787 785 781 777 773 768 762 758 752 748 744 740 736 732 728 723
803 808 812 815 818 819 820 822 823 823 824 824 823 822 821 820 819 818 816 812 808 804 800 796 793 789 785 783 780 776 773 768 764 760 755 750 746 743 737 733 729 725 719
805 809 813 815 818 820 822 822 822 823 823 823 823 823 821 820 820 817 814 810 806 802 798 794 791 787 783 779 775 769 764 761 758 755 751 748 744 738 734 730 726 722 717
805 809 813 815 817 820 822 823 823 823 822 823 824 824 823 820 818 814 809 806 803 800 796 792 788 784 780 775 768 762 758 755 752 750 747 742 738 733 730 727 723 719 713
808 813 816 817 819 820 821 822 822 821 821 821 822 822 822 820 817 814 808 804 802 798 794 790 785 781 776 771 766 760 754 751 748 744 740 735 729 725 723 722 718 715 706
811 814 817 819 820 822 822 821 822 822 821 820 820 818 819 818 815 812 807 804 800 797 793 789 785 780 775 769 764 759 752 747 743 739 734 730 725 722 719 717 714 709 704
815 815 818 820 822 823 823 822 822 822 821 820 819 816 816 817 816 811 807 805 801 796 792 788 783 777 771 766 762 759 754 748 742 739 734 729 724 720 717 714 710 706 696
810 815 814 818 821 823 822 822 822 822 820 818 818 815 815 815 814 812 807 804 800 796 792 789 784 777 771 766 762 758 753 747 743 738 734 729 724 719 714 709 702 695 687
809 814 815 815 822 824 821 822 821 821 819 818 816 814 815 814 814 811 807 803 801 798 795 789 783 777 771 766 762 757 752 747 744 739 734 730 724 719 713 705 697 688 675
804 813 813 813 821 821 822 822 823 825 822 821 820 818 816 815 815 811 806 802 801 798 794 790 784 778 772 768 762 757 753 751 746 741 737 730 724 717 710 703 695 683 668
807 813 817 815 817 820 824 825 825 828 826 827 825 822 820 817 817 814 807 803 800 797 794 790 785 778 772 766 762 760 755 751 746 742 737 730 724 716 709 701 694 682 671
804 806 809 815 818 821 821 826 829 828 824 826 826 825 824 820 817 812 808 805 802 797 794 791 788 783 777 771 767 760 756 752 749 744 738 732 725 718 711 702 694 685 673
804 806 808 808 821 823 823 823 824 826 824 825 825 825 825 821 817 812 806 803 802 798 794 792 789 785 780 775 770 765 760 755 750 745 739 733 726 719 711 703 697 688 676
804 809 811 808 819 821 821 822 823 820 821 823 823 825 824 820 816 814 809 802 801 798 796 794 791 786 782 778 774 769 763 757 752 747 741 735 728 721 712 704 697 692 682
804 807 811 812 816 820 820 821 821 820 821 822 820 820 822 819 814 813 808 804 802 801 799 796 794 790 787 782 777 772 767 761 755 749 743 737 730 723 715 708 700 693 687
805 805 808 809 815 817 819 819 819 819 820 820 820 820 820 817 816 813 814 810 805 804 802 800 796 793 790 785 780 775 769 763 757 751 746 741 734 726 719 710 702 695 689
805 805 807 810 811 813 815 817 817 819 819 819 820 821 822 820 820 817 812 813 810 807 806 803 800 796 793 788 783 778 772 766 761 755 750 744 737 728 721 713 705 698 693
805 805 807 807 809 812 812 815 816 817 819 819 819 821 822 822 819 820 817 814 813 810 808 805 802 799 795 791 786 781 775 770 764 758 753 748 739 731 723 715 708 701 695
802 804 807 808 809 811 813 813 814 815 817 819 818 818 821 821 821 821 817 815 814 811 809 807 804 801 797 793 789 785 779 774 767 762 757 750 741 735 725 718 712 706 700
803 804 806 809 810 810 811 811 814 817 817 818 818 819 821 821 819 818 820 818 814 812 810 808 806 803 799 795 790 786 782 775 767 764 758 752 744 738 730 724 717 711 706
801 804 805 808 810 810 813 813 815 814 815 817 817 818 821 822 822 821 819 818 816 814 812 810 808 804 801 797 792 787 781 775 769 764 759 753 748 742 736 729 724 717 712
802 805 805 806 809 810 810 812 814 815 816 817 819 821 823 823 820 820 823 820 817 815 814 812 809 806 802 798 792 786 781 776 770 765 759 756 751 745 742 735 729 722 717
Wind_Speed
15 14 14 12 11 10 10 10 8 6 5 7 8 9 11 13 12 11 10 12 13 16 16 17 17 18 19 19 19 21 21 24 19 27 26 23 23 27 27 30 29 28 29
12 10 10 8 7 8 6 5 4 4 6 8 9 10 9 6 7 9 11 13 15 16 17 17 17 17 17 18 20 20 23 24 26 23 25 22 25 25 27 29 29 27 27
8 8 7 7 6 5 4 2 2 2 3 4 4 4 6 8 10 11 12 13 15 15 15 15 17 18 19 20 21 24 24 24 23 25 27 24 23 24 25 27 28 29 27
9 8 8 7 6 5 5 4 3 3 3 3 5 7 8 10 11 9 13 14 15 15 16 17 18 18 18 21 22 21 20 20 20 23 23 23 20 23 21 19 23 20 24
13 12 11 10 9 8 8 7 5 5 5 6 7 8 8 10 8 11 12 15 16 16 19 18 18 17 21 18 17 21 21 18 20 21 21 22 23 22 20 21 21 19 22
16 15 13 12 11 10 8 6 5 5 6 7 8 9 9 6 12 14 14 15 16 18 18 17 17 19 14 17 15 21 21 21 22 19 20 19 22 21 22 19 18 16 8
17 15 14 13 10 8 6 5 6 6 7 7 8 9 6 6 14 18 19 13 15 16 17 17 17 19 18 13 21 23 20 18 17 20 21 18 21 21 22 20 20 22 23
17 15 12 11 9 7 6 6 7 6 7 8 8 9 9 7 15 19 19 13 13 15 15 16 16 16 14 22 24 23 21 17 14 11 13 18 22 26 21 22 24 25 27
15 13 10 9 8 7 6 6 6 6 6 7 7 8 9 11 16 19 21 15 15 17 18 17 16 15 24 23 21 19 18 13 13 16 20 25 26 22 18 15 15 17 21
13 12 10 9 7 6 5 6 6 6 6 8 9 9 9 11 17 21 25 19 19 20 18 18 18 19 23 21 18 17 19 19 24 23 23 20 19 17 17 7 17 15 22
11 11 9 8 8 6 6 7 6 7 8 9 10 10 9 12 13 20 24 19 16 16 16 18 18 26 23 20 17 16 18 20 18 16 16 16 17 18 19 17 22 20 29
12 10 11 9 7 6 7 7 7 8 8 9 10 11 11 12 13 21 23 20 17 13 15 16 18 22 21 17 17 18 18 16 14 16 16 17 19 21 22 25 30 34 37
14 12 12 12 8 6 9 8 7 8 9 10 11 12 12 12 13 20 20 18 17 15 13 16 17 18 21 22 22 23 22 18 16 17 18 20 22 22 26 28 28 38 38
17 13 12 12 8 10 8 8 9 10 10 10 12 12 12 12 15 18 17 16 17 17 16 14 19 22 23 25 26 26 21 17 17 18 20 22 24 24 25 26 28 34 36
15 11 8 10 9 9 9 9 7 6 9 10 10 11 11 13 15 16 15 14 13 15 14 16 19 21 25 28 27 21 17 19 19 20 21 23 24 25 25 29 30 32 31
16 13 11 8 7 5 6 6 7 7 11 10 10 11 8 11 14 16 14 12 16 16 14 17 18 19 20 25 21 22 21 21 21 22 22 22 24 24 26 28 31 30 29
14 15 13 12 4 5 4 2 2 4 3 5 10 10 13 11 13 16 12 11 15 15 14 17 18 20 19 18 20 20 21 22 22 22 22 23 24 25 26 26 28 30 32
13 13 11 12 6 5 4 2 2 5 5 2 2 7 13 13 14 17 15 12 15 16 17 16 16 17 19 19 20 21 22 23 23 23 22 23 24 25 26 28 27 26 32
16 13 9 9 6 4 3 1 2 4 5 6 6 5 13 15 7 11 14 14 14 16 17 17 18 18 18 19 19 20 21 23 24 23 23 24 25 26 27 28 27 29 30
12 12 9 8 7 6 4 1 1 3 4 6 7 10 13 11 10 11 12 13 13 14 16 16 17 17 18 19 20 20 21 23 24 24 24 24 25 25 27 27 28 25 23
11 12 8 7 7 6 4 3 0 2 3 4 6 8 9 8 10 11 11 13 14 14 15 16 17 17 19 19 20 21 21 23 24 24 24 24 25 27 26 26 27 25 23
9 9 9 8 7 6 5 3 2 1 1 3 4 5 10 7 8 9 10 11 12 13 14 15 16 18 19 19 20 20 21 24 25 24 24 24 25 27 26 26 26 26 25
10 8 6 6 6 4 5 5 4 3 2 2 3 5 5 6 7 8 9 10 11 13 14 15 16 18 19 18 19 19 20 23 24 21 23 20 25 27 26 26 26 25 25
9 7 6 6 6 6 5 5 4 2 3 2 4 4 3 3 5 6 8 9 11 12 13 14 16 18 20 20 19 19 19 23 21 19 16 20 23 26 25 25 26 24 24
8 7 6 6 6 6 4 5 5 6 5 4 5 4 3 3 5 6 7 8 10 11 13 14 16 17 20 19 20 19 23 23 18 19 19 18 20 22 23 23 25 23 24
6 6 6 6 6 6 6 6 6 5 5 5 4 3 2 2 3 5 7 8 9 10 12 13 16 17 20 19 21 21 23 20 18 17 19 18 19 19 23 22 24 23 23
Wind_Direction
221 223 227 229 233 237 243 246 242 245 245 266 277 284 291 293 292 292 294 299 301 302 302 301 302 301 298 301 301 298 295 298 298 300 303 307 301 291 291 293 291 287 284
217 217 221 224 222 220 223 187 206 245 272 281 288 292 298 305 308 304 304 305 300 303 305 305 302 303 301 299 296 302 298 294 294 299 303 300 302 294 292 293 288 289 284
194 197 194 184 187 168 163 169 233 268 295 314 328 338 326 314 307 302 303 305 306 304 303 304 306 307 301 302 300 298 297 300 301 303 300 298 297 302 298 295 291 288 286
160 151 149 148 139 130 119 110 98 81 54 3 344 337 327 317 312 317 320 315 312 310 310 308 306 303 302 305 300 299 296 299 298 290 301 310 305 308 307 312 319 308 300
132 128 122 116 112 106 96 85 67 42 16 350 336 333 330 327 6 349 334 323 315 308 307 304 304 308 303 302 296 295 292 292 294 299 296 306 308 314 303 302 297 305 303
121 116 115 108 101 94 82 65 46 21 5 355 348 341 338 31 352 347 341 321 312 311 313 313 312 306 328 315 306 300 292 288 285 292 297 301 299 300 300 303 301 301 312
116 114 110 105 95 80 69 54 40 29 18 6 356 349 18 42 352 350 348 329 322 318 316 317 319 317 320 315 317 310 301 288 280 285 283 289 293 301 309 304 299 300 297
118 115 109 102 95 83 63 53 40 29 18 5 1 0 356 1 348 1 1 339 333 327 326 328 338 330 334 329 321 314 308 305 301 300 290 294 294 295 295 296 300 300 304
111 101 96 92 83 76 72 61 41 23 18 8 9 2 1 360 355 360 3 349 345 337 338 346 348 348 344 340 338 335 325 318 322 321 310 307 301 304 298 298 297 317 304
105 102 93 83 80 74 72 64 42 20 22 5 3 4 356 359 349 2 9 0 352 346 344 344 346 341 339 344 346 343 339 333 330 326 324 317 315 313 319 292 311 305 304
102 99 91 87 80 76 64 54 35 14 8 2 359 359 6 7 3 358 10 4 351 341 342 344 341 335 337 339 347 345 333 327 325 318 324 325 324 324 323 303 305 305 299
120 119 106 95 83 76 67 45 26 7 357 356 359 360 8 9 4 359 5 8 6 348 344 343 342 347 352 349 349 344 342 351 337 332 330 329 327 324 324 313 305 318 311
134 115 106 95 79 65 56 33 23 19 10 5 2 359 360 358 1 360 353 5 5 359 351 343 352 7 6 4 2 4 358 358 342 333 332 323 323 317 316 317 315 319 313
120 118 113 102 100 64 52 40 35 20 12 3 3 356 358 360 0 357 356 5 2 358 350 349 359 12 17 12 7 5 356 346 340 333 327 321 322 323 323 330 326 324 325
117 115 123 109 87 89 69 55 52 44 40 15 11 356 359 4 356 355 359 358 359 356 352 349 356 2 2 2 2 351 353 351 348 340 334 331 330 329 333 338 337 331 329
135 141 117 96 96 109 115 118 73 65 54 39 29 28 10 352 359 1 2 6 1 11 354 358 356 357 355 358 350 352 354 350 348 341 338 336 334 334 337 339 342 338 330
139 132 124 116 134 133 115 87 118 166 74 50 30 25 14 8 5 3 4 15 358 2 4 2 360 354 344 352 356 353 350 349 345 346 342 341 339 339 340 339 340 337 334
130 133 131 128 156 147 129 109 21 32 28 35 17 12 2 5 8 8 15 20 7 9 12 10 359 358 360 358 355 350 349 349 349 348 347 346 346 345 344 342 342 343 339
145 149 155 142 148 148 151 141 30 34 13 4 5 15 -0 343 348 7 13 22 15 11 10 8 6 5 0 356 354 351 349 349 349 349 351 351 350 349 346 345 342 343 349
163 158 165 153 158 193 195 238 22 12 2 5 10 19 354 357 14 17 13 21 24 13 7 5 3 2 358 355 355 352 351 353 352 352 352 351 351 348 349 346 346 347 352
174 163 168 189 197 199 206 235 236 326 0 7 25 25 23 -0 14 21 25 19 18 14 7 3 1 360 357 356 355 354 353 351 351 350 351 351 347 347 349 349 350 353 357
184 167 177 202 197 200 216 229 229 234 333 20 27 32 30 26 24 18 21 21 16 14 9 4 3 1 359 356 354 353 352 350 348 347 348 348 345 352 349 351 354 357 357
181 177 189 191 196 178 208 218 197 196 164 74 61 59 39 34 28 17 17 19 15 15 11 8 5 4 1 359 358 356 353 348 340 342 339 341 347 355 351 356 356 359 359
181 187 185 184 196 201 194 181 170 176 144 129 109 86 68 40 35 36 12 11 15 13 11 7 4 3 1 0 358 358 352 347 349 345 343 336 349 356 355 359 359 1 1
177 194 189 191 195 202 168 185 178 170 165 157 136 126 99 44 25 19 15 7 11 11 9 6 4 2 1 0 358 357 354 359 7 1 346 336 354 2 359 3 1 4 7
192 210 204 194 200 194 188 185 185 179 171 157 146 139 118 45 37 25 2 5 9 10 8 6 4 4 2 1 360 3 360 6 16 15 6 4 3 8 4 5 7 11 12